H1 CPF 2 NER 2022 4 6 9 096 01 glonass129 H2 1106402 9129 37868 2022 4 6 0 0 0 2022 4 9 23 45 0 900 1 1 0 0 0 1 H9 10 0 59675 0.00000 0 -12103489.574 2095790.065 -22304703.178 10 0 59675 900.00000 0 -11179488.268 -546609.554 -22874112.645 10 0 59675 1800.00000 0 -10439093.351 -3290072.379 -22997103.581 10 0 59675 2700.00000 0 -9902529.248 -6067350.826 -22671443.733 10 0 59675 3600.00000 0 -9577928.347 -8808867.908 -21903685.347 10 0 59675 4500.00000 0 -9461078.419 -11445393.485 -20709020.625 10 0 59675 5400.00000 0 -9535710.812 -13910708.066 -19110965.772 10 0 59675 6300.00000 0 -9774315.066 -16144142.758 -17140881.247 10 0 59675 7200.00000 0 -10139443.190 -18092889.577 -14837339.086 10 0 59675 8100.00000 0 -10585446.101 -19713986.669 -12245351.197 10 0 59675 9000.00000 0 -11060566.647 -20975897.124 -9415475.053 10 0 59675 9900.00000 0 -11509298.966 -21859617.524 -6402815.631 10 0 59675 10800.00000 0 -11874913.132 -22359272.546 -3265944.055 10 0 59675 11700.00000 0 -12102037.684 -22482173.666 -65754.824 10 0 59675 12600.00000 0 -12139190.836 -22248342.393 3135715.634 10 0 59675 13500.00000 0 -11941153.922 -21689520.836 6276486.082 10 0 59675 14400.00000 0 -11471087.870 -20847713.392 9295820.425 10 0 59675 15300.00000 0 -10702304.662 -19773322.371 12135388.131 10 0 59675 16200.00000 0 -9619620.485 -18522956.688 14740373.936 10 0 59675 17100.00000 0 -8220234.759 -17157005.549 17060516.940 10 0 59675 18000.00000 0 -6514098.877 -15737078.078 19051060.787 10 0 59675 18900.00000 0 -4523759.354 -14323414.754 20673598.552 10 0 59675 19800.00000 0 -2283681.266 -12972377.035 21896797.981 10 0 59675 20700.00000 0 160921.015 -11734118.102 22696994.712 10 0 59675 21600.00000 0 2755699.216 -10650529.942 23058643.430 10 0 59675 22500.00000 0 5439168.144 -9753550.742 22974619.048 10 0 59675 23400.00000 0 8145004.260 -9063902.001 22446362.288 10 0 59675 24300.00000 0 10804553.594 -8590307.500 21483866.406 10 0 59675 25200.00000 0 13349447.977 -8329226.838 20105504.177 10 0 59675 26100.00000 0 15714223.483 -8265115.490 18337696.803 10 0 59675 27000.00000 0 17838834.331 -8371201.846 16214429.051 10 0 59675 27900.00000 0 19670958.894 -8610750.348 13776617.556 10 0 59675 28800.00000 0 21168002.033 -8938759.552 11071342.221 10 0 59675 29700.00000 0 22298709.749 -9304025.298 8150953.371 10 0 59675 30600.00000 0 23044327.489 -9651483.299 5072070.131 10 0 59675 31500.00000 0 23399251.845 -9924732.881 1894488.337 10 0 59675 32400.00000 0 23371146.447 -10068634.977 -1319981.433 10 0 59675 33300.00000 0 22980515.269 -10031873.422 -4508722.974 10 0 59675 34200.00000 0 22259749.743 -9769369.281 -7609546.306 10 0 59675 35100.00000 0 21251688.806 -9244443.466 -10561916.915 10 0 59675 36000.00000 0 20007752.187 -8430633.129 -13308156.633 10 0 59675 36900.00000 0 18585726.018 -7313081.882 -15794590.628 10 0 59675 37800.00000 0 17047295.154 -5889442.051 -17972616.073 10 0 59675 38700.00000 0 15455427.738 -4170248.176 -19799669.719 10 0 59675 39600.00000 0 13871724.088 -2178743.929 -21240073.775 10 0 59675 40500.00000 0 12353843.411 49831.721 -22265742.415 10 0 59675 41400.00000 0 10953118.290 2469469.883 -22856734.378 10 0 59675 42300.00000 0 9712458.553 5025077.254 -23001640.578 10 0 59675 43200.00000 0 8664633.180 7654550.719 -22697799.476 10 0 59675 44100.00000 0 7831002.302 10291153.434 -21951336.599 10 0 59675 45000.00000 0 7220751.652 12866092.005 -20777028.477 10 0 59675 45900.00000 0 6830659.954 15311186.252 -19197994.903 10 0 59675 46800.00000 0 6645406.784 17561519.419 -17245226.944 10 0 59675 47700.00000 0 6638405.277 19557957.952 -14956961.428 10 0 59675 48600.00000 0 6773121.770 21249436.001 -12377915.669 10 0 59675 49500.00000 0 7004823.988 22594910.250 -9558398.736 10 0 59675 50400.00000 0 7282681.545 23564904.898 -6553317.995 10 0 59675 51300.00000 0 7552128.103 24142584.392 -3421101.346 10 0 59675 52200.00000 0 7757384.028 24324311.507 -222556.927 10 0 59675 53100.00000 0 7844032.319 24119670.125 2980306.940 10 0 59675 54000.00000 0 7761538.941 23550954.416 6125478.633 10 0 59675 54900.00000 0 7465611.742 22652148.187 9152134.031 10 0 59675 55800.00000 0 6920299.397 21467439.021 12001798.884 10 0 59675 56700.00000 0 6099743.164 20049330.636 14619461.465 10 0 59675 57600.00000 0 4989508.869 18456432.870 16954615.567 10 0 59675 58500.00000 0 3587444.140 16751021.363 18962215.423 10 0 59675 59400.00000 0 1904025.358 14996467.853 20603526.106 10 0 59675 60300.00000 0 -37820.427 13254646.616 21846854.908 10 0 59675 61200.00000 0 -2203412.072 11583423.288 22668151.264 10 0 59675 62100.00000 0 -4547502.057 10034328.494 23051465.032 10 0 59675 63000.00000 0 -7015908.306 8650511.160 22989255.128 10 0 59675 63900.00000 0 -9547524.990 7465055.110 22482542.780 10 0 59675 64800.00000 0 -12076631.948 6499727.878 21540906.034 10 0 59675 65700.00000 0 -14535409.897 5764213.404 20182314.507 10 0 59675 66600.00000 0 -16856559.697 5255860.833 18432805.956 10 0 59675 67500.00000 0 -18975919.123 4959960.702 16326008.776 10 0 59675 68400.00000 0 -20834969.790 4850538.204 13902517.321 10 0 59675 69300.00000 0 -22383130.409 4891631.862 11209129.756 10 0 59675 70200.00000 0 -23579740.486 5039005.383 8297960.987 10 0 59675 71100.00000 0 -24395650.528 5242221.930 5225445.998 10 0 59675 72000.00000 0 -24814350.443 5446994.137 2051251.751 10 0 59675 72900.00000 0 -24832586.782 5597710.691 -1162881.866 10 0 59675 73800.00000 0 -24460440.679 5640031.939 -4354349.414 10 0 59675 74700.00000 0 -23720861.196 5523443.177 -7460911.242 10 0 59675 75600.00000 0 -22648672.131 5203655.301 -10421923.487 10 0 59675 76500.00000 0 -21289093.143 4644748.390 -13179540.962 10 0 59675 77400.00000 0 -19695837.246 3820964.496 -15679867.378 10 0 59675 78300.00000 0 -17928865.313 2718070.712 -17874028.393 10 0 59675 79200.00000 0 -16051893.172 1334232.050 -19719144.604 10 0 59675 80100.00000 0 -14129757.828 -319645.050 -21179183.812 10 0 59675 81000.00000 0 -12225755.252 -2220114.886 -22225674.680 10 0 59675 81900.00000 0 -10399063.286 -4331932.960 -22838267.126 10 0 59675 82800.00000 0 -8702359.265 -6609303.991 -23005128.215 10 0 59675 83700.00000 0 -7179733.158 -8997584.952 -22723166.052 10 0 59675 84600.00000 0 -5864983.820 -11435371.138 -21998077.944 10 0 59675 85500.00000 0 -4780369.246 -13856876.896 -20844222.879 10 0 59676 0.00000 0 -3935861.791 -16194510.248 -19284322.217 10 0 59676 900.00000 0 -3328937.054 -18381534.091 -17348994.930 10 0 59676 1800.00000 0 -2944903.698 -20354698.974 -15076140.192 10 0 59676 2700.00000 0 -2757755.742 -22056741.512 -12510178.061 10 0 59676 3600.00000 0 -2731509.573 -23438641.232 -9701166.535 10 0 59676 4500.00000 0 -2821965.858 -24461543.771 -6703812.758 10 0 59676 5400.00000 0 -2978819.610 -25098271.330 -3576398.890 10 0 59676 6300.00000 0 -3148027.346 -25334359.266 -379644.336 10 0 59676 7200.00000 0 -3274330.103 -25168577.686 2824472.940 10 0 59676 8100.00000 0 -3303825.189 -24612918.701 5973913.041 10 0 59676 9000.00000 0 -3186478.180 -23692052.120 9007765.820 10 0 59676 9900.00000 0 -2878469.869 -22442274.327 11867415.181 10 0 59676 10800.00000 0 -2344280.251 -20909995.675 14497654.674 10 0 59676 11700.00000 0 -1558423.006 -19149830.307 16847734.365 10 0 59676 12600.00000 0 -506758.692 -17222368.124 18872320.463 10 0 59676 13500.00000 0 812667.714 -15191721.024 20532351.185 10 0 59676 14400.00000 0 2389299.820 -13122944.187 21795774.252 10 0 59676 15300.00000 0 4200267.469 -11079437.835 22638153.477 10 0 59676 16200.00000 0 6211102.021 -9120435.328 23043134.167 10 0 59676 17100.00000 0 8376941.443 -7298679.748 23002759.216 10 0 59676 18000.00000 0 10644177.508 -5658383.572 22517630.048 10 0 59676 18900.00000 0 12952479.544 -4233554.635 21596908.925 10 0 59676 19800.00000 0 15237113.724 -3046756.980 20258161.492 10 0 59676 20700.00000 0 17431464.279 -2108357.903 18527040.999 10 0 59676 21600.00000 0 19469654.354 -1416292.822 16436818.201 10 0 59676 22500.00000 0 21289159.179 -956358.676 14027763.662 10 0 59676 23400.00000 0 22833303.631 -703024.793 11346392.054 10 0 59676 24300.00000 0 24053540.012 -620728.601 8444580.851 10 0 59676 25200.00000 0 24911410.041 -665602.995 5378578.623 10 0 59676 26100.00000 0 25380107.275 -787563.536 2207920.936 10 0 59676 27000.00000 0 25445572.353 -932667.789 -1005725.721 10 0 59676 27900.00000 0 25107072.638 -1045646.729 -4199769.500 10 0 59676 28800.00000 0 24377239.484 -1072500.062 -7311923.937 10 0 59676 29700.00000 0 23281559.486 -963043.693 -10281438.585 10 0 59676 30600.00000 0 21857339.486 -673299.070 -13050303.841 10 0 59676 31500.00000 0 20152188.102 -167620.359 -15564404.320 10 0 59676 32400.00000 0 18222077.468 579533.553 -17774596.238 10 0 59676 33300.00000 0 16129067.319 1582260.085 -19637685.850 10 0 59676 34200.00000 0 13938788.227 2842366.107 -21117288.063 10 0 59676 35100.00000 0 11717791.211 4349050.991 -22184547.279 10 0 59676 36000.00000 0 9530876.492 6079134.315 -22818705.581 10 0 59676 36900.00000 0 7438514.934 7997819.314 -23007506.868 10 0 59676 37800.00000 0 5494471.205 10059960.041 -22747429.264 10 0 59676 38700.00000 0 3743728.600 12211778.579 -22043741.894 10 0 59676 39600.00000 0 2220802.158 14392959.341 -20910385.870 10 0 59676 40500.00000 0 948509.534 16539031.604 -19369683.084 10 0 59676 41400.00000 0 -62750.806 18583939.443 -17451879.874 10 0 59676 42300.00000 0 -815186.324 20462690.470 -15194536.010 10 0 59676 43200.00000 0 -1323257.338 22113972.000 -12641772.435 10 0 59676 44100.00000 0 -1612802.269 23482625.053 -9843393.853 10 0 59676 45000.00000 0 -1719681.250 24521873.054 -6853904.659 10 0 59676 45900.00000 0 -1687998.288 25195212.980 -3731438.476 10 0 59676 46800.00000 0 -1567979.427 25477891.287 -536622.982 10 0 59676 47700.00000 0 -1413598.323 25357904.696 2668597.332 10 0 59676 48600.00000 0 -1280050.578 24836486.072 5822157.454 10 0 59676 49500.00000 0 -1221183.843 23928057.131 8863064.328 10 0 59676 50400.00000 0 -1286991.791 22659651.861 11732563.018 10 0 59676 51300.00000 0 -1521276.812 21069836.204 14375255.190 10 0 59676 52200.00000 0 -1959578.719 19207169.956 16740149.802 10 0 59676 53100.00000 0 -2627455.324 17128275.235 18781627.412 10 0 59676 54000.00000 0 -3539186.057 14895591.400 20460301.470 10 0 59676 54900.00000 0 -4696952.335 12574908.571 21743761.904 10 0 59676 55800.00000 0 -6090528.923 10232780.482 22607188.347 10 0 59676 56700.00000 0 -7697499.862 7933921.905 23033822.600 10 0 59676 57600.00000 0 -9483991.408 5738696.250 23015292.147 10 0 59676 58500.00000 0 -11405893.471 3700795.394 22551778.727 10 0 59676 59400.00000 0 -13410521.344 1865206.037 21652028.397 10 0 59676 60300.00000 0 -15438651.489 266545.534 20333201.847 10 0 59676 61200.00000 0 -17426849.499 -1072164.379 18620566.259 10 0 59676 62100.00000 0 -19309995.989 -2140235.140 16547032.632 10 0 59676 63000.00000 0 -21023907.299 -2939528.995 14152545.111 10 0 59676 63900.00000 0 -22507942.933 -3484146.646 11483331.819 10 0 59676 64800.00000 0 -23707491.331 -3799596.817 8591029.417 10 0 59676 65700.00000 0 -24576229.478 -3921481.294 5531696.462 10 0 59676 66600.00000 0 -25078060.299 -3893749.693 2364733.436 10 0 59676 67500.00000 0 -25188644.536 -3766596.881 -848270.274 10 0 59676 68400.00000 0 -24896460.209 -3594091.805 -4044740.034 10 0 59676 69300.00000 0 -24203342.459 -3431638.669 -7162346.025 10 0 59676 70200.00000 0 -23124478.489 -3333379.321 -10140234.488 10 0 59676 71100.00000 0 -21687855.671 -3349648.937 -12920234.403 10 0 59676 72000.00000 0 -19933184.526 -3524595.246 -15448013.969 10 0 59676 72900.00000 0 -17910341.080 -3894064.968 -17674162.254 10 0 59676 73800.00000 0 -15677394.030 -4483849.691 -19555172.964 10 0 59676 74700.00000 0 -13298300.264 -5308367.950 -21054309.357 10 0 59676 75600.00000 0 -10840366.556 -6369841.325 -22142332.198 10 0 59676 76500.00000 0 -8371585.263 -7658000.912 -22798075.708 10 0 59676 77400.00000 0 -5957957.080 -9150337.395 -23008859.973 10 0 59676 78300.00000 0 -3660914.058 -10812884.428 -22770731.906 10 0 59676 79200.00000 0 -1534951.354 -12601502.046 -22088530.708 10 0 59676 80100.00000 0 374433.193 -14463605.298 -20975777.454 10 0 59676 81000.00000 0 2032406.248 -16340264.369 -19454392.240 10 0 59676 81900.00000 0 3416004.765 -18168586.861 -17554245.763 10 0 59676 82800.00000 0 4514832.116 -19884281.049 -15312555.626 10 0 59676 83700.00000 0 5331218.292 -21424291.723 -12773140.676 10 0 59676 84600.00000 0 5879840.770 -22729397.599 -9985549.328 10 0 59676 85500.00000 0 6186825.327 -23746661.280 -7004080.261 10 0 59677 0.00000 0 6288367.993 -24431629.595 -3886715.981 10 0 59677 900.00000 0 6228939.131 -24750193.349 -693989.121 10 0 59677 1800.00000 0 6059147.614 -24680029.159 2512191.600 10 0 59677 2700.00000 0 5833357.063 -24211565.932 5669738.453 10 0 59677 3600.00000 0 5607155.388 -23348436.363 8717577.654 10 0 59677 4500.00000 0 5434784.596 -22107396.733 11596817.390 10 0 59677 5400.00000 0 5366638.652 -20517719.732 14251869.154 10 0 59677 6300.00000 0 5446933.776 -18620086.576 16631502.238 10 0 59677 7200.00000 0 5711647.867 -16465024.949 18689812.701 10 0 59677 8100.00000 0 6186814.349 -14110957.434 20387090.065 10 0 59677 9000.00000 0 6887240.952 -11621940.420 21690566.976 10 0 59677 9900.00000 0 7815706.516 -9065185.789 22575039.051 10 0 59677 10800.00000 0 8962669.485 -6508465.954 23023344.430 10 0 59677 11700.00000 0 10306501.079 -4017507.372 23026694.713 10 0 59677 12600.00000 0 11814234.931 -1653478.161 22584851.202 10 0 59677 13500.00000 0 13442804.110 529328.372 21706142.756 10 0 59677 14400.00000 0 15140716.585 2485520.061 20407323.898 10 0 59677 15300.00000 0 16850102.063 4180259.188 18713274.363 10 0 59677 16200.00000 0 18509047.593 5590474.634 16656543.836 10 0 59677 17100.00000 0 20054126.783 6705582.399 14276748.340 10 0 59677 18000.00000 0 21423018.634 7527683.658 11619827.589 10 0 59677 18900.00000 0 22557107.319 8071231.096 8737175.407 10 0 59677 19800.00000 0 23403953.952 8362176.253 5684658.140 10 0 59677 20700.00000 0 23919535.625 8436632.430 2521538.846 10 0 59677 21600.00000 0 24070155.875 8339108.647 -690672.650 10 0 59677 22500.00000 0 23833943.814 8120388.704 -3889421.440 10 0 59677 23400.00000 0 23201876.015 7835145.226 -7012336.859 10 0 59677 24300.00000 0 22178275.304 7539390.571 -9998464.243 10 0 59677 25200.00000 0 20780762.786 7287874.157 -12789473.397 10 0 59677 26100.00000 0 19039663.040 7131538.573 -15330818.117 10 0 59677 27000.00000 0 16996886.025 7115144.752 -17572822.088 10 0 59677 27900.00000 0 14704331.977 7275169.384 -19471667.987 10 0 59677 28800.00000 0 12221886.360 7638066.064 -20990268.720 10 0 59677 29700.00000 0 9615089.652 8218965.826 -22099002.501 10 0 59677 30600.00000 0 6952580.645 9020873.653 -22776296.598 10 0 59677 31500.00000 0 4303421.696 10034395.822 -23009047.969 10 0 59677 32400.00000 0 1734418.938 11238009.960 -22792872.780 10 0 59677 33300.00000 0 -692449.644 12598866.121 -22132180.478 10 0 59677 34200.00000 0 -2922390.406 14074084.337 -21040071.952 10 0 59677 35100.00000 0 -4909836.442 15612492.842 -19538064.982 10 0 59677 36000.00000 0 -6620091.976 17156732.507 -17655653.721 10 0 59677 36900.00000 0 -8030511.797 18645637.559 -15429712.333 10 0 59677 37800.00000 0 -9131168.983 20016791.326 -12903755.945 10 0 59677 38700.00000 0 -9924986.031 21209148.703 -10127074.735 10 0 59677 39600.00000 0 -10427327.216 22165614.680 -7153759.461 10 0 59677 40500.00000 0 -10665072.792 22835470.661 -4041638.496 10 0 59677 41400.00000 0 -10675217.180 23176547.263 -851147.949 10 0 59677 42300.00000 0 -10503052.937 23157053.369 2355842.536 10 0 59677 43200.00000 0 -10200019.167 22756986.111 5517225.331 10 0 59677 44100.00000 0 -9821306.480 21969064.208 8571848.790 10 0 59677 45000.00000 0 -9423319.981 20799147.167 11460687.067 10 0 59677 45900.00000 0 -9061107.067 19266124.175 14127964.277 10 0 59677 46800.00000 0 -8785857.504 17401278.278 16522212.737 10 0 59677 47700.00000 0 -8642579.699 15247152.802 18597246.548 10 0 59677 48600.00000 0 -8668049.341 12855966.971 20313033.657 10 0 59677 49500.00000 0 -8889115.120 10287645.618 21636451.537 10 0 59677 50400.00000 0 -9321431.409 7607543.251 22541913.611 10 0 59677 51300.00000 0 -9968670.443 4883954.707 23011855.829 10 0 59677 52200.00000 0 -10822247.014 2185513.001 23037074.974 10 0 59677 53100.00000 0 -11861568.083 -421420.386 22616912.507 10 0 59677 54000.00000 0 -13054798.436 -2875267.286 21759280.166 10 0 59677 54900.00000 0 -14360112.613 -5121544.794 20480525.830 10 0 59677 55800.00000 0 -15727383.328 -7114883.124 18805140.718 10 0 59677 56700.00000 0 -17100238.533 -8820666.572 16765311.574 10 0 59677 57600.00000 0 -18418403.573 -10216229.685 14400324.127 10 0 59677 58500.00000 0 -19620232.384 -11291558.323 11755827.024 10 0 59677 59400.00000 0 -20645322.950 -12049465.480 8882968.191 10 0 59677 60300.00000 0 -21437107.702 -12505233.303 5837418.417 10 0 59677 61200.00000 0 -21945309.443 -12685734.943 2678299.752 10 0 59677 62100.00000 0 -22128158.074 -12628072.073 -532961.224 10 0 59677 63000.00000 0 -21954272.572 -12377784.710 -3733833.061 10 0 59677 63900.00000 0 -21404126.162 -11986708.713 -6861907.936 10 0 59677 64800.00000 0 -20471029.946 -11510571.991 -9856133.863 10 0 59677 65700.00000 0 -19161590.549 -11006432.309 -12658024.880 10 0 59677 66600.00000 0 -17495619.896 -10530066.878 -15212823.540 10 0 59677 67500.00000 0 -15505498.853 -10133426.460 -17470590.951 10 0 59677 68400.00000 0 -13235020.113 -9862264.191 -19387201.121 10 0 59677 69300.00000 0 -10737758.393 -9754041.824 -20925218.411 10 0 59677 70200.00000 0 -8075036.418 -9836204.094 -22054639.668 10 0 59677 71100.00000 0 -5313572.567 -10124895.796 -22753485.705 10 0 59677 72000.00000 0 -2522909.753 -10624176.797 -23008230.185 10 0 59677 72900.00000 0 227265.829 -11325768.553 -22814057.703 10 0 59677 73800.00000 0 2869803.122 -12209342.508 -22174946.571 10 0 59677 74700.00000 0 5342649.204 -13243337.407 -21103575.622 10 0 59677 75600.00000 0 7591189.861 -14386269.758 -19621058.057 10 0 59677 76500.00000 0 9570270.663 -15588480.695 -17756508.909 10 0 59677 77400.00000 0 11245815.411 -16794243.990 -15546456.073 10 0 59677 78300.00000 0 12595976.457 -17944144.880 -13034107.920 10 0 59677 79200.00000 0 13611771.483 -18977628.290 -10268493.213 10 0 59677 80100.00000 0 14297183.168 -19835608.248 -7303491.487 10 0 59677 81000.00000 0 14668720.985 -20463028.280 -4196773.926 10 0 59677 81900.00000 0 14754466.868 -20811265.186 -1008676.228 10 0 59677 82800.00000 0 14592647.884 -20840275.710 2198973.992 10 0 59677 83700.00000 0 14229798.550 -20520396.928 5364052.263 10 0 59677 84600.00000 0 13718591.962 -19833726.044 8425331.881 10 0 59677 85500.00000 0 13115432.120 -18775023.137 11323655.449 10 0 59678 0.00000 0 12477909.119 -17352100.477 14003061.580 10 0 59678 900.00000 0 11862223.400 -15585682.249 16411847.806 10 0 59678 1800.00000 0 11320687.135 -13508743.077 18503547.286 10 0 59678 2700.00000 0 10899405.038 -11165350.216 20237807.229 10 0 59678 3600.00000 0 10636231.136 -8609058.583 21581150.338 10 0 59678 4500.00000 0 10559085.276 -5900923.188 22507607.824 10 0 59678 5400.00000 0 10684698.776 -3107209.400 22999213.037 10 0 59678 6300.00000 0 11017841.112 -296893.389 23046347.166 10 0 59678 7200.00000 0 11551060.124 2460946.375 22647930.743 10 0 59678 8100.00000 0 12264947.458 5099741.385 21811457.013 10 0 59678 9000.00000 0 13128919.713 7557943.380 20552865.606 10 0 59678 9900.00000 0 14102484.732 9781330.566 18896257.442 10 0 59678 10800.00000 0 15136942.445 11725015.477 16873454.372 10 0 59678 11700.00000 0 16177451.485 13355071.668 14523409.750 10 0 59678 12600.00000 0 17165377.079 14649711.370 11891478.959 10 0 59678 13500.00000 0 18040823.280 15599964.281 9028561.726 10 0 59678 14400.00000 0 18745243.959 16209827.920 5990130.875 10 0 59678 15300.00000 0 19224022.630 16495881.793 2835164.980 10 0 59678 16200.00000 0 19428911.426 16486380.213 -374995.126 10 0 59678 17100.00000 0 19320224.546 16219860.849 -3577843.928 10 0 59678 18000.00000 0 18868691.096 15743327.019 -6710938.835 10 0 59678 18900.00000 0 18056886.158 15110080.470 -9713132.770 10 0 59678 19800.00000 0 16880176.567 14377296.959 -12525786.020 10 0 59678 20700.00000 0 15347138.547 13603448.429 -15093931.650 10 0 59678 21600.00000 0 13479427.042 12845682.728 -17367369.682 10 0 59678 22500.00000 0 11311100.250 12157273.843 -19301666.695 10 0 59678 23400.00000 0 8887426.616 11585252.735 -20859039.522 10 0 59678 24300.00000 0 6263223.824 11168321.001 -22009104.468 10 0 59678 25200.00000 0 3500799.648 10935137.202 -22729476.546 10 0 59678 26100.00000 0 667581.580 10903049.339 -23006206.594 10 0 59678 27000.00000 0 -2166464.625 11077327.416 -22834047.904 10 0 59678 27900.00000 0 -4931518.686 11450928.241 -22216547.656 10 0 59678 28800.00000 0 -7560578.799 12004801.478 -21165962.322 10 0 59678 29700.00000 0 -9992012.007 12708722.645 -19702999.884 10 0 59678 30600.00000 0 -12171875.675 13522616.153 -17856395.259 10 0 59678 31500.00000 0 -14055913.937 14398310.667 -15662328.740 10 0 59678 32400.00000 0 -15611147.325 15281650.847 -13163700.333 10 0 59678 33300.00000 0 -16816991.404 16114874.729 -10409275.528 10 0 59678 34200.00000 0 -17665860.264 16839155.160 -7452720.610 10 0 59678 35100.00000 0 -18163232.806 17397197.271 -4351547.414 10 0 59678 36000.00000 0 -18327182.275 17735782.191 -1165988.958 10 0 59678 36900.00000 0 -18187391.921 17808150.026 2042171.510 10 0 59678 37800.00000 0 -17783700.922 17576122.475 5210795.098 10 0 59678 38700.00000 0 -17164243.940 17011876.802 8278582.511 10 0 59678 39600.00000 0 -16383263.967 16099297.895 11186247.338 10 0 59678 40500.00000 0 -15498691.129 14834852.902 13877645.695 10 0 59678 41400.00000 0 -14569589.053 13227952.774 16300841.892 10 0 59678 42300.00000 0 -13653575.205 11300786.259 18409091.118 10 0 59678 43200.00000 0 -12804322.050 9087633.286 20161722.175 10 0 59678 44100.00000 0 -12069242.064 6633685.649 21524905.138 10 0 59678 45000.00000 0 -11487451.742 3993422.816 22472290.899 10 0 59678 45900.00000 0 -11088098.212 1228608.228 22985511.781 10 0 59678 46800.00000 0 -10889117.211 -1594013.268 23054534.597 10 0 59678 47700.00000 0 -10896473.793 -4405224.244 22677859.744 10 0 59678 48600.00000 0 -11103917.600 -7135948.760 21862562.322 10 0 59678 49500.00000 0 -11493263.811 -9719866.181 20624173.579 10 0 59678 50400.00000 0 -12035189.492 -12095918.654 18986403.491 10 0 59678 51300.00000 0 -12690513.989 -14210609.980 16980707.880 10 0 59678 52200.00000 0 -13411911.903 -16020001.411 14645706.092 10 0 59678 53100.00000 0 -14145988.887 -17491321.408 12026458.178 10 0 59678 54000.00000 0 -14835634.846 -18604121.797 9173613.198 10 0 59678 54900.00000 0 -15422556.715 -19350930.904 6142443.219 10 0 59678 55800.00000 0 -15849884.463 -19737374.744 2991780.299 10 0 59678 56700.00000 0 -16064739.907 -19781759.649 -217123.733 10 0 59678 57600.00000 0 -16020658.449 -19514132.376 -3421792.679 10 0 59678 58500.00000 0 -15679759.245 -18974856.191 -6559752.656 10 0 59678 59400.00000 0 -15014569.306 -18212762.477 -9569765.007 10 0 59678 60300.00000 0 -14009421.335 -17282956.066 -12393039.745 10 0 59678 61200.00000 0 -12661363.130 -16244367.841 -14974403.812 10 0 59678 62100.00000 0 -10980537.278 -15157159.467 -17263399.293 10 0 59678 63000.00000 0 -8990012.674 -14080091.789 -19215288.160 10 0 59678 63900.00000 0 -6725073.246 -13067970.140 -20791942.099 10 0 59678 64800.00000 0 -4231992.707 -12169276.450 -21962598.716 10 0 59678 65700.00000 0 -1566346.385 -11424089.806 -22704468.459 10 0 59678 66600.00000 0 1209068.752 -10862384.428 -23003179.949 10 0 59678 67500.00000 0 4026618.172 -10502777.351 -22853055.157 10 0 59678 68400.00000 0 6816417.382 -10351778.463 -22257209.547 10 0 59678 69300.00000 0 9509013.942 -10403573.631 -21227476.140 10 0 59678 70200.00000 0 12038051.308 -10640348.566 -19784156.147 10 0 59678 71100.00000 0 14342803.098 -11033137.821 -17955602.418 10 0 59678 72000.00000 0 16370472.215 -11543160.876 -15777645.328 10 0 59678 72900.00000 0 18078159.904 -12123586.681 -13292873.828 10 0 59678 73800.00000 0 19434424.124 -12721650.025 -10549787.120 10 0 59678 74700.00000 0 20420364.273 -13281028.601 -7601834.920 10 0 59678 75600.00000 0 21030189.673 -13744379.050 -4506366.153 10 0 59678 76500.00000 0 21271250.992 -14055924.161 -1323507.444 10 0 59678 77400.00000 0 21163536.332 -14163981.816 1885006.083 10 0 59678 78300.00000 0 20738656.012 -14023329.366 5057024.776 10 0 59678 79200.00000 0 20038361.106 -13597304.570 8131180.217 10 0 59678 80100.00000 0 19112659.734 -12859555.734 11048060.096 10 0 59678 81000.00000 0 18017611.274 -11795368.681 13751340.521 10 0 59678 81900.00000 0 16812891.297 -10402515.862 16188855.301 10 0 59678 82800.00000 0 15559228.840 -8691592.845 18313583.144 10 0 59678 83700.00000 0 14315822.209 -6685828.311 20084535.679 10 0 59678 84600.00000 0 13137839.820 -4420375.053 21467531.099 10 0 59678 85500.00000 0 12074108.701 -1941110.459 22435840.242 99